Location: Chantarel
(45.1638°N, 1.7873°E)
Time: 12:37:56
(UTC+00:00)

Cosmos 1869 Rocket - Pass Details

Date: 03 March 2021
Orbit: 605 x 633 km, 82.5° (Epoch: 11 April)

Event Time Altitude Azimuth Distance (km) Brightness Sun altitude
Rises 19:49:51 0° 192° (SSW) 2,857 7.0 -23.0°
Reaches altitude 10° 19:52:03 10° 194° (SSW) 1,961 6.1 -23.4°
Maximum altitude 19:56:23 73° 279° (W) 647 3.7 -24.1°
Drops below altitude 10° 20:00:48 10° 5° (N) 1,994 6.3 -24.8°
Sets 20:03:04 0° 7° (N) 2,910 7.1 -25.2°
